Regional Weather Roundup
Issued by NWS

Home | Current Version | Previous Version | Text Only | Print | Product List | Glossary Off
Versions: 1 2 3 4 5 6 7 8 9 10 11 12 13 14 15 16 17 18 19 20 21 22 23 24 25 26 27 28 29 30 31 32 33 34 35 36 37 38 39 40 41 42 43 44 45 46 47 48 49 50

000
ASUS43 KLOT 280508
RWRIL

ILLINOIS REGIONAL WEATHER ROUNDUP
NATIONAL WEATHER SERVICE CHICAGO/ROMEOVILLE IL
1200 AM CDT TUE APR 28 2015

NOTE: "FAIR" INDICATES FEW OR NO CLOUDS BELOW 12,000 FEET WITH NO
SIGNIFICANT WEATHER AND/OR OBSTRUCTIONS TO VISIBILITY.

* THESE STATIONS ARE NOT UNDER NWS QUALITY CONTROL. THEY ALSO MAY NOT
  REPORT WEATHER SUCH AS PRECIPITATION OR FOG.

ILZ001-002-007-009-015-016-024-280600-
NORTHWEST ILLINOIS

CITY           SKY/WX    TMP DP  RH WIND       PRES   REMARKS
MOLINE         CLEAR     43  36  76 CALM      30.11R
STERLING*      CLEAR     45  37  76 E6        30.12S
SAVANNA*       CLEAR     47  37  68 S5        30.11S
$$

ILZ003-004-008-010-011-017-018-280600-
NORTH CENTRAL ILLINOIS

CITY           SKY/WX    TMP DP  RH WIND       PRES   REMARKS
ROCKFORD       CLEAR     45  34  65 CALM      30.15R
FREEPORT*      CLEAR     39  34  81 SE5       30.13S
ROCHELLE*      CLEAR     40  35  80 CALM      30.13R
DE KALB*       CLEAR     38  32  77 NE6       30.13R WCI  34
PERU*          CLEAR     46  36  68 CALM      30.13R
$$

ILZ005-006-012>014-019>023-280600-
NORTHEAST ILLINOIS

CITY           SKY/WX    TMP DP  RH WIND       PRES   REMARKS
CHICAGO-OHARE  CLEAR     40  32  73 CALM      30.11F
CHICAGO-MIDWAY CLEAR     43  33  68 NW3       30.11F
AURORA         CLEAR     40  32  73 CALM      30.12R
LANSING*       CLEAR     39  32  77 CALM      30.11F
JOLIET*        CLEAR     44  34  66 CALM      30.12R
WAUKEGAN       CLEAR     36  32  85 NW3       30.11F
DUPAGE AIRPORT CLEAR     39  32  76 NE5       30.11S
KANKAKEE*      CLEAR     38  35  87 CALM      30.11S
WHEELING       CLEAR     39  33  79 CALM      30.13F
MORRIS*        CLEAR     41  34  77 CALM      30.10R
ROMEOVILLE*    CLEAR     41  32  72 E6        30.11S
NORTHERLY ISL    N/A     41  34  76 MISG        N/A
$$

LMZ740>746-280600-
SOUTHERN LAKE MICHIGAN

STATION/POSITION SKY/WX   TEMP    WIND        PRES    VSBY  WAVE
                          AIR SEA DIR/SP/G                  HT/PER
                          (F)     (DEG/KT/KT) (MB)    (MI)  (FT/S)
HARRISON CRIB              41     350/  6/  7   N/A
BURNHAM HARBOR             41     350/  4/  7   N/A
CALUMET HARBOR             41     350/  4/  5   N/A
BURNS HARBOR               42     340/  5/  5 1020.3F
MICHIGAN CITY              40     300/  7/  8   N/A
MICHIGAN CITY 6N           40 46  360/  4/  6   N/A           3/ 5
$$

ILZ025>027-034>036-040-047-049-050-058-095>099-280600-
WEST-CENTRAL ILLINOIS

CITY           SKY/WX    TMP DP  RH WIND       PRES   REMARKS
QUINCY         CLEAR     48  36  63 N3        30.11S
GALESBURG*     CLEAR     49  37  63 SE5       30.11S
MACOMB*        CLEAR     45  37  74 CALM      30.13S
JACKSONVILLE*  CLEAR     46  38  72 E8        30.12R
PITTSFIELD*    CLEAR     48  39  72 NW5       30.11S
$$

ILZ028>032-037-038-041>044-048-051>054-059>061-280600-
CENTRAL ILLINOIS

CITY           SKY/WX    TMP DP  RH WIND       PRES   REMARKS
PONTIAC        CLEAR     40  36  84 CALM      30.13S
BLOOMINGTON    CLEAR     44  34  68 E6        30.13R
DECATUR        CLEAR     46  36  68 CALM      30.11S
PEORIA         CLEAR     49  36  61 CALM      30.13R
LACON*         CLEAR     41  35  79 CALM      30.13R
LINCOLN*       CLEAR     45  37  75 CALM      30.12S
SPRINGFIELD    CLEAR     48  38  68 E7        30.13R
TAYLORVILLE    CLEAR     46  36  66 E6        30.12S
$$

ILZ033-039-045-046-055>057-062-063-280600-
EAST-CENTRAL ILLINOIS

CITY           SKY/WX    TMP DP  RH WIND       PRES   REMARKS
CHAMPAIGN      CLEAR     43  33  68 NE9       30.09S
DANVILLE*      CLEAR     37  34  87 N8        30.07S WCI  31
RANTOUL*       CLEAR     44  35  71 NE5       30.10S
MATTOON        CLEAR     43  35  73 N3        30.08F
PARIS*         CLEAR     43  36  77 N3        30.10S
$$

ILZ079-100>102-280600-
SOUTHWEST ILLINOIS

CITY           SKY/WX    TMP DP  RH WIND       PRES   REMARKS
ALTON          CLEAR     49  37  62 CALM      30.10R
BELLEVILLE     CLEAR     47  42  83 NE1       30.08S
CAHOKIA*       CLEAR     49  39  68 E3        30.09S
SPARTA*        FAIR      47  39  74 NE5       30.09S
$$

ILZ064>066-069>071-074>076-080>082-084>086-088>090-092>094-280600-
SOUTH-CENTRAL ILLINOIS

CITY           SKY/WX    TMP DP  RH WIND       PRES   REMARKS
CARBONDALE     PTCLDY    50  38  63 NE7       30.08S
CAIRO*         PTCLDY    54  41  61 N8        30.05R
EFFINGHAM*     CLEAR     47  34  60 CALM      30.11S
MARION         PTCLDY    48  39  71 NE7       30.08S
MT. VERNON     CLEAR     45  34  65 CALM      30.10R
CENTRALIA*     CLEAR     46  37  70 CALM      30.09S
SALEM*         CLEAR     50  38  61 CALM      30.10S
METROPOLIS*    PTCLDY    52  42  69 N5        30.04S
$$

ILZ067-068-072-073-078-083-087-091-280600-
SOUTHEAST ILLINOIS

CITY           SKY/WX    TMP DP  RH WIND       PRES   REMARKS
LAWRENCEVILLE  CLEAR     46  38  73 NE3       30.08R
FLORA*         CLEAR     46  37  70 CALM      30.10S
FAIRFIELD*     CLEAR     47  38  71 N3        30.08S
HARRISBURG*    CLEAR     49  39  69 N6        30.09R
ROBINSON*      CLEAR     45  37  72 N9        30.09S
CARMI*         CLEAR     47  37  67 N6        30.07S
$$

ABBREVIATIONS USED IN REMARKS
   TC - TEMPERATURE IN CELSIUS
  WCI - WIND CHILL INDEX
   HX - HEAT INDEX
  VSB - VISIBILITY
$$



USA.gov is the U.S. government's official web portal to all federal, state and local government web resources and services.